Change the Weather History Date:

Monday, May 27, 2013

  Actual Average Record
Temperature  
Mean Temperature 82 °F -  
Max Temperature 95 °F 85 °F 102 °F (2011)
Min Temperature 70 °F 59 °F 57 °F (1997)
Cooling Degree Days 18    
Growing Degree Days 32 (Base 50)    
Moisture  
Dew Point 66 °F    
Average Humidity 62    
Maximum Humidity 87    
Minimum Humidity 36    
Precipitation  
Precipitation 0.00 in - - ()
Sea Level Pressure  
Sea Level Pressure 29.73 in    
Wind  
Wind Speed 21 mph (South)    
Max Wind Speed 29 mph    
Max Gust Speed 43 mph    
Visibility 10 miles    
Events Thunderstorm    
Averages and records for this station are not official NWS values.
T = Trace of Precipitation, MM = Missing Value Source: NWS Daily Summary

Daily Weather History Graph

Daily Weather History Graph

Search for Another Location

Airport or City:

Trip Planner

Search our weather history database for the weather conditions in past years. The results will help you decide how hot, cold, wet, or windy it might be!

Date:

Astronomy

May. 27, 2013 Rise Set
Actual Time 6:25 AM CDT 8:41 PM CDT
Civil Twilight 5:56 AM CDT 9:10 PM CDT
Nautical Twilight 5:20 AM CDT 9:46 PM CDT
Astronomical Twilight 4:42 AM CDT 10:25 PM CDT
Moon 11:25 PM CDT (5/27) 9:02 AM CDT (5/27)
Length of Visible Light 15h 14m
Length of Day
14h 16m
Waning Gibbous, 91% of the Moon is Illuminated
May 27
Waning Gibbous
May 31
Last Quarter
Jun 8
New
Jun 16
First Quarter
Jun 23
Full

Hourly Weather History & Observations

Time (CDT) Temp. Heat Index Dew Point Humidity Pressure Visibility Wind Dir Wind Speed Gust Speed Precip Events Conditions
12:53 AM 75.9 °F - 66.0 °F 71% 29.81 in 10.0 mi South 21.9 mph 29.9 mph N/A   Clear
1:53 AM 75.0 °F - 66.9 °F 76% 29.79 in 10.0 mi South 17.3 mph 26.5 mph N/A   Clear
2:53 AM 75.0 °F - 66.9 °F 76% 29.80 in 10.0 mi South 17.3 mph 24.2 mph N/A   Clear
3:53 AM 73.0 °F - 68.0 °F 84% 29.81 in 10.0 mi SSW 15.0 mph - N/A   Clear
4:53 AM 73.0 °F - 66.9 °F 81% 29.79 in 10.0 mi SSW 15.0 mph - N/A   Clear
5:53 AM 71.1 °F - 66.0 °F 84% 29.78 in 10.0 mi South 13.8 mph - N/A   Clear
6:53 AM 70.0 °F - 66.0 °F 87% 29.79 in 10.0 mi South 13.8 mph - N/A   Clear
7:53 AM 72.0 °F - 66.9 °F 84% 29.81 in 10.0 mi South 19.6 mph 24.2 mph N/A   Clear
8:43 AM 73.4 °F - 66.2 °F 78% 29.86 in 10.0 mi SSW 19.6 mph 29.9 mph N/A   Mostly Cloudy
8:53 AM 73.9 °F - 66.9 °F 79% 29.80 in 10.0 mi SSW 24.2 mph 31.1 mph N/A   Mostly Cloudy
9:53 AM 78.1 °F - 66.9 °F 68% 29.79 in 10.0 mi SSW 28.8 mph 35.7 mph N/A   Scattered Clouds
10:53 AM 82.9 °F 85.4 °F 66.9 °F 58% 29.77 in 10.0 mi SSW 19.6 mph 32.2 mph N/A   Clear
11:53 AM 86.0 °F 88.2 °F 66.0 °F 51% 29.75 in 10.0 mi SSW 26.5 mph 34.5 mph N/A   Clear
12:53 PM 89.1 °F 91.3 °F 66.0 °F 46% 29.73 in 10.0 mi South 25.3 mph 35.7 mph N/A   Clear
1:53 PM 91.0 °F 92.6 °F 64.0 °F 41% 29.70 in 10.0 mi SSW 28.8 mph 35.7 mph N/A   Clear
2:53 PM 93.9 °F 95.6 °F 64.0 °F 37% 29.68 in 10.0 mi South 28.8 mph 36.8 mph N/A   Partly Cloudy
3:53 PM 95.0 °F 97.0 °F 64.0 °F 36% 29.65 in 10.0 mi South 25.3 mph 36.8 mph N/A   Clear
4:53 PM 91.9 °F 93.3 °F 64.0 °F 39% 29.63 in 10.0 mi South 25.3 mph 33.4 mph N/A   Clear
5:53 PM 91.9 °F 94.1 °F 64.9 °F 41% 29.60 in 10.0 mi South 28.8 mph 36.8 mph N/A   Clear
6:53 PM 84.9 °F 86.6 °F 64.9 °F 51% 29.62 in 10.0 mi South 25.3 mph 42.6 mph N/A   Clear
7:01 PM 84.2 °F 85.6 °F 64.4 °F 51% 29.67 in 10.0 mi South 25.3 mph 36.8 mph N/A Thunderstorm Clear
7:36 PM 84.2 °F 85.6 °F 64.4 °F 51% 29.71 in 10.0 mi South 23.0 mph 36.8 mph 0.00 in   Partly Cloudy
7:53 PM 84.0 °F 85.8 °F 64.9 °F 53% 29.64 in 10.0 mi South 25.3 mph 32.2 mph 0.00 in Thunderstorm Thunderstorm
8:14 PM 82.4 °F 84.6 °F 66.2 °F 58% 29.69 in 10.0 mi South 27.6 mph 34.5 mph N/A   Partly Cloudy
8:53 PM 80.1 °F 82.1 °F 66.0 °F 62% 29.64 in 10.0 mi South 21.9 mph 35.7 mph N/A   Clear
9:53 PM 79.0 °F - 66.9 °F 66% 29.65 in 10.0 mi South 24.2 mph 31.1 mph N/A   Clear
10:53 PM 78.1 °F - 66.0 °F 66% 29.67 in 10.0 mi South 16.1 mph 24.2 mph N/A   Clear
11:53 PM 78.1 °F - 66.0 °F 66% 29.68 in 10.0 mi SSW 20.7 mph 27.6 mph N/A   Clear